Погода в Санта-Крусе

Филиппины     14°16′44″N   121°24′57″E
темп.,
°C
ветер,
м/с
пор.,
м/с
влажн.,
%
обл.,
%
осадки,
мм/ч
давл.,
гПа
погр.,
м
9 марта, вт
вт923:00+22всв3109226 0.4 1015710
02:00+22в299456 0.8 1013528
05:00+22всв3109377 0.3 1013705
08:00+24всв5108361 0.7 1015972
11:00+26всв5107244 1.3 10151160
14:00+28всв6106444 2.0 10131255
17:00+25всв5107546 0.3 10131096
20:00+22всв3109226 0.5 1015777
10 марта, ср
ср1023:00+22всв3119122 0.4 1016737
02:00+21всв3119317 0.9 1014769
05:00+21всв3119369 0.4 1014751
08:00+24всв4108278 0.9 10161141
11:00+26св510767 0.9 10151139
14:00+26всв6117541 1.9 10131192
17:00+25всв5107946 0.6 10131025
20:00+22всв4118930 1.2 1015963
11 марта, чт
чт1123:00+22всв311903 0.4 1016770
02:00+22всв311914 0.8 1014831
05:00+22в311901 0.3 1014848
08:00+25всв511792 0.4 10161135
11:00+28всв6116431 0.4 10151413
14:00+28всв6106116 0.8 10121489
17:00+25всв510780 0.4 10121089
20:00+22всв311893 0.9 1015821
12 марта, пт
пт1223:00+22всв3119191 0.4 1015831
02:00+22всв3109294 1.1 1014837
05:00+22всв3109298 0.4 1013865
08:00+23всв4108799 0.9 10151000
11:00+25всв61177100 0.7 10141103
14:00+26всв51175100 1.3 10121134
17:00+24всв41085100 0.8 1012983
20:00+23всв3109096 1.3 1013922
13 марта, сб
сб1323:00+22всв31092100 0.4 1014807
02:00+22всв31093100 0.8 1012709
05:00+22всв31091100 0.4 1012801
08:00+23всв41085100 0.8 1014993
11:00+25св6117598 0.6 10131115
14:00+26св5107199 1.1 10101143
17:00+25всв41076100 0.3 1010993
20:00+22всв31090100 0.4 1012694